This is the latest recevied weather packets stored in our database for station/object DG1ROH. If no packets are shown the sender has not sent any weather packets the latest 10 day(s).
| Time | Temp. | Humidity | Pressure | Rain* | Wind** | Luminosity | Snow |
|---|---|---|---|---|---|---|---|
| 1777386041 | 16.11° C | 36% | 1024.5 hPa | 0 mm | - | 513 W/m² | - |
| 1777385918 | 15.56° C | 36% | 1024.5 hPa | 0 mm | - | 517 W/m² | - |
| 1777385797 | 15.56° C | 35% | 1024.5 hPa | 0 mm | - | 524 W/m² | - |
| 1777385675 | 15.56° C | 35% | 1024.5 hPa | 0 mm | - | 527 W/m² | - |
| 1777385555 | 15.56° C | 33% | 1024.5 hPa | 0 mm | - | 533 W/m² | - |
| 1777385435 | 15.56° C | 31% | 1024.5 hPa | 0 mm | - | 534 W/m² | - |
| 1777385315 | 15.56° C | 31% | 1024.6 hPa | 0 mm | - | 540 W/m² | - |
| 1777385195 | 15.56° C | 33% | 1024.7 hPa | 0 mm | - | 545 W/m² | - |
| 1777385076 | 15.56° C | 32% | 1024.6 hPa | 0 mm | - | 547 W/m² | - |
| 1777384956 | 15.56° C | 34% | 1024.7 hPa | 0 mm | - | 552 W/m² | - |
| 1777384837 | 15° C | 33% | 1024.6 hPa | 0 mm | - | 557 W/m² | - |
| 1777384716 | 15° C | 31% | 1024.6 hPa | 0 mm | - | 559 W/m² | - |
| 1777384594 | 15.56° C | 31% | 1024.7 hPa | 0 mm | - | 563 W/m² | - |
| 1777384473 | 16.11° C | 32% | 1024.7 hPa | 0 mm | - | 570 W/m² | - |
| 1777384353 | 16.11° C | 33% | 1024.6 hPa | 0 mm | - | 573 W/m² | - |
| 1777384232 | 15.56° C | 32% | 1024.8 hPa | 0 mm | - | 575 W/m² | - |
| 1777384114 | 15.56° C | 32% | 1024.7 hPa | 0 mm | - | 582 W/m² | - |
| 1777383993 | 15.56° C | 34% | 1024.7 hPa | 0 mm | - | 582 W/m² | - |
| 1777383867 | 15.56° C | 32% | 1024.8 hPa | 0 mm | - | 585 W/m² | - |
| 1777383745 | 15.56° C | 34% | 1024.8 hPa | 0 mm | - | 589 W/m² | - |
| 1777383625 | 15.56° C | 33% | 1024.8 hPa | 0 mm | - | 580 W/m² | - |
| 1777383505 | 15.56° C | 34% | 1024.8 hPa | 0 mm | - | 596 W/m² | - |
| 1777383385 | 15° C | 33% | 1024.8 hPa | 0 mm | - | 603 W/m² | - |
| 1777383263 | 15.56° C | 32% | 1024.8 hPa | 0 mm | - | 608 W/m² | - |
| 1777383143 | 15.56° C | 34% | 1024.8 hPa | 0 mm | - | 612 W/m² | - |
* Rain latest hour (hover to see other rain measurements)
** Current wind speed in m/s (hover to see current wind gust speed)